Lid_Strength_Index
16 15 15 15 14 13 13 13 13 13 13 13 13 13 13 13 12 11 12 12 12 12 11 11 12 12 11 11 11 11 11 11 11 10 10 11 12 13 13 13 13 14 14
15 15 15 15 15 15 14 14 14 14 14 15 14 14 14 14 14 14 14 13 13 13 13 13 14 13 13 13 13 13 13 13 13 14 13 13 14 15 15 16 16 16 16
16 16 15 15 15 15 14 13 13 14 14 14 14 14 14 14 13 13 13 14 15 16 16 16 15 15 16 15 15 14 14 13 13 14 15 14 14 17 17 17 17 17 16
16 16 17 17 16 15 15 15 14 14 14 14 14 14 14 14 14 14 13 14 14 14 14 15 15 15 15 15 15 16 15 15 16 16 16 17 17 17 18 19 19 17 17
16 16 17 16 16 16 17 16 16 15 15 15 15 15 15 14 14 14 14 14 14 15 15 15 15 15 14 14 15 16 17 17 17 17 18 18 19 19 20 18 19 18 17
18 18 17 17 17 17 17 17 16 17 16 16 16 16 16 15 13 13 15 16 16 16 17 17 16 16 16 14 15 15 15 17 18 18 18 19 19 19 18 18 18 19 19
18 18 18 18 18 18 17 17 17 18 17 17 17 17 17 16 14 15 15 16 17 17 17 16 17 16 16 16 16 16 15 15 15 17 18 18 18 17 16 17 17 18 18
19 19 18 18 18 18 18 18 18 18 18 18 18 17 16 16 14 15 15 16 17 17 17 16 16 16 15 16 17 17 16 16 15 15 16 16 15 14 14 15 17 17 17
19 19 19 18 18 19 19 19 18 18 18 18 18 18 17 16 14 15 15 16 17 17 17 16 16 16 14 14 16 17 16 16 14 14 14 13 13 13 13 15 20 20 21
19 19 19 18 19 19 19 19 18 18 18 18 18 18 18 17 14 14 15 15 17 16 16 16 14 15 14 13 15 17 17 16 16 16 16 15 14 13 13 14 15 23 22
19 19 19 19 19 19 19 19 18 19 19 19 19 19 19 18 17 14 14 15 16 16 16 16 15 14 13 13 13 16 16 14 16 17 17 16 16 15 15 15 15 17 20
20 20 20 20 19 19 20 20 19 19 20 20 20 20 19 18 16 15 14 14 14 16 16 15 15 13 13 12 13 13 12 15 21 22 22 20 19 18 17 16 16 17 16
22 22 22 21 20 20 20 21 21 21 21 21 20 21 20 18 18 16 15 14 14 15 14 14 13 13 13 14 14 14 17 20 22 24 22 20 18 17 18 20 20 21 21
23 23 22 22 21 21 19 19 21 21 21 20 20 22 22 20 19 18 16 16 15 15 14 16 15 14 14 15 18 17 18 19 20 21 21 20 21 23 22 21 21 19 20
22 22 21 22 21 21 20 21 19 19 19 23 23 21 24 23 18 15 15 17 19 16 19 23 22 21 22 21 21 22 21 21 22 22 23 25 22 20 20 21 23 22 23
22 21 22 21 23 22 22 22 18 17 16 16 16 17 18 16 15 14 14 13 13 12 23 25 24 22 22 22 22 21 22 22 21 22 25 24 22 21 21 20 20 24 22
21 21 22 21 22 23 23 23 25 21 16 16 16 16 16 15 15 14 14 13 13 15 27 27 25 24 24 22 22 23 22 22 25 26 26 22 22 21 22 22 22 22 22
25 22 22 23 23 24 24 24 25 26 27 26 19 17 16 15 15 15 14 15 26 25 30 29 28 26 24 24 24 24 23 24 26 24 24 24 27 28 24 24 22 22 21
25 26 25 25 25 25 25 26 27 28 29 30 29 22 21 17 16 15 15 26 28 29 30 29 27 26 25 27 25 26 27 25 25 28 29 25 27 30 24 23 22 22 21
27 25 26 26 27 27 27 27 28 29 29 31 30 29 29 28 29 29 28 28 29 26 26 26 25 26 27 27 27 27 27 30 27 28 26 26 25 27 23 23 22 22 22
26 28 25 27 28 28 27 28 27 29 29 30 27 27 19 25 24 26 27 27 25 25 24 25 25 26 27 27 28 28 28 26 26 28 27 26 28 26 25 23 22 22 22
27 28 29 28 27 26 26 28 29 30 29 28 25 28 17 21 26 25 25 24 23 24 24 25 24 25 25 26 26 26 26 26 26 28 27 26 28 27 25 24 23 23 23
28 28 29 32 30 30 30 31 29 28 27 27 26 25 27 24 23 23 23 22 23 23 24 25 24 23 25 25 25 25 25 25 25 28 28 27 27 26 27 25 24 23 23
29 29 29 30 31 29 29 29 28 28 26 25 25 24 24 23 23 22 22 21 22 22 22 23 22 22 22 25 25 25 24 24 25 26 28 26 26 26 26 25 24 23 23
31 31 30 29 29 27 28 28 27 26 25 24 24 24 23 23 23 22 21 21 21 21 21 21 21 21 23 23 23 26 25 22 23 25 28 27 26 26 26 25 24 24 24
31 30 28 29 29 28 27 26 25 25 24 24 23 23 22 22 21 21 20 20 20 20 20 20 20 21 21 22 23 23 24 22 24 25 25 26 26 26 26 25 25 24 23